Regional Weather Roundup
Issued by NWS

Home | Current Version | Previous Version | Graphics & Text | Print | Product List | Glossary On
Versions: 1 2 3 4 5 6 7 8 9 10 11 12 13 14 15 16 17 18 19 20 21 22 23 24 25 26 27 28 29 30 31 32 33 34 35 36 37 38 39 40 41 42 43 44 45 46 47 48 49 50
000
ASUS43 KLOT 300102
RWRIL

ILLINOIS REGIONAL WEATHER ROUNDUP
NATIONAL WEATHER SERVICE CHICAGO/ROMEOVILLE IL
800 PM CDT MON JUN 29 2015

NOTE: "FAIR" INDICATES FEW OR NO CLOUDS BELOW 12,000 FEET WITH NO
SIGNIFICANT WEATHER AND/OR OBSTRUCTIONS TO VISIBILITY.

* THESE STATIONS ARE NOT UNDER NWS QUALITY CONTROL. THEY ALSO MAY NOT
  REPORT WEATHER SUCH AS PRECIPITATION OR FOG.

ILZ001-002-007-009-015-016-024-300200-
NORTHWEST ILLINOIS

CITY           SKY/WX    TMP DP  RH WIND       PRES   REMARKS
MOLINE         PTCLDY    73  69  87 S6        29.80S
STERLING*      PTCLDY    73  64  73 W7        29.81S
$$

ILZ003-004-008-010-011-017-018-300200-
NORTH CENTRAL ILLINOIS

CITY           SKY/WX    TMP DP  RH WIND       PRES   REMARKS
ROCKFORD       MOCLDY    69  66  90 S3        29.81S
$$

ILZ005-006-012>014-019>023-300200-
NORTHEAST ILLINOIS

CITY           SKY/WX    TMP DP  RH WIND       PRES   REMARKS
CHICAGO-OHARE  MOCLDY    69  64  84 SW3       29.79S
CHICAGO-MIDWAY MOCLDY    72  65  78 SW5       29.79S
AURORA         MOCLDY    70  64  81 CALM      29.80F
LANSING*       PTCLDY    70  61  73 W5        29.81S
WAUKEGAN       CLEAR     65  61  87 SE5       29.79S
DUPAGE AIRPORT PTCLDY    70  62  76 CALM      29.79F
WHEELING       PTCLDY    70  63  78 S5        29.80F
NORTHERLY ISL    N/A     65  62  90 E1          N/A
$$

LMZ740>746-300200-
SOUTHERN LAKE MICHIGAN

STATION/POSITION SKY/WX   TEMP    WIND        PRES    VSBY  WAVE
                          AIR SEA DIR/SP/G                  HT/PER
                          (F)     (DEG/KT/KT) (MB)    (MI)  (FT/S)
HARRISON CRIB              65     120/  5/  6   N/A
BURNHAM HARBOR             66      CALM  /  3   N/A
CALUMET HARBOR             67      40/  1/  3   N/A
BURNS HARBOR               68      60/  3/  4 1009.8R
MICHIGAN CITY              67     340/  6/  6   N/A
MICHIGAN CITY 6N           66 67   10/  4/  4   N/A           0
ST. JOSEPH                 68 65                N/A           0
$$

ILZ025>027-034>036-040-047-049-050-058-095>099-300200-
WEST-CENTRAL ILLINOIS

CITY           SKY/WX    TMP DP  RH WIND       PRES   REMARKS
QUINCY         CLEAR     72  67  84 SW3       29.85S
MACOMB*        PTCLDY    71  64  80 W5        29.86S
$$

ILZ028>032-037-038-041>044-048-051>054-059>061-300200-
CENTRAL ILLINOIS

CITY           SKY/WX    TMP DP  RH WIND       PRES   REMARKS
DECATUR        MOCLDY    75  63  66 W8        29.83R
PEORIA         PTCLDY    77  65  66 NW3       29.83R
SPRINGFIELD    PTCLDY    75  67  76 CALM      29.84R
TAYLORVILLE    NOT AVBL
$$

ILZ033-039-045-046-055>057-062-063-300200-
EAST-CENTRAL ILLINOIS

CITY           SKY/WX    TMP DP  RH WIND       PRES   REMARKS
CHAMPAIGN      PTCLDY    72  66  81 W6        29.83R
MATTOON        CLOUDY    72  64  76 W8        29.83R
$$

ILZ079-100>102-300200-
SOUTHWEST ILLINOIS

CITY           SKY/WX    TMP DP  RH WIND       PRES   REMARKS
ALTON          CLOUDY    75  75 100 CALM      29.85S
CAHOKIA*       CLOUDY    75  67  76 SW6       29.85S
SPARTA*        PTCLDY    78  66  68 CALM      29.86S
$$

ILZ064>066-069>071-074>076-080>082-084>086-088>090-092>094-300200-
SOUTH-CENTRAL ILLINOIS

CITY           SKY/WX    TMP DP  RH WIND       PRES   REMARKS
CARBONDALE     CLEAR     79  66  64 CALM      29.85S HX  81
MT. VERNON     PTCLDY    73  63  68 CALM      29.86R
SALEM*         MOCLDY    76  65  69 W5        29.86R
$$

ILZ067-068-072-073-078-083-087-091-300200-
SOUTHEAST ILLINOIS

CITY           SKY/WX    TMP DP  RH WIND       PRES   REMARKS
LAWRENCEVILLE  CLEAR     75  64  68 W6        29.84R
HARRISBURG*    CLEAR     78  67  68 CALM      29.86S HX  80
$$

ABBREVIATIONS USED IN REMARKS
   TC - TEMPERATURE IN CELSIUS
  WCI - WIND CHILL INDEX
   HX - HEAT INDEX
  VSB - VISIBILITY
$$




USA.gov is the U.S. government's official web portal to all federal, state and local government web resources and services.